This is the latest recevied weather packets stored in our database for station/object KE8DAF-15. If no packets are shown the sender has not sent any weather packets the latest 10 day(s).
| Time | Temp. | Humidity | Pressure | Rain* | Wind** | Luminosity | Snow |
|---|---|---|---|---|---|---|---|
| 1788018765 | 25.56° C | 73% | 1003.6 hPa | 0 mm | - | - | - |
| 1788018465 | 25° C | 72% | 1003.6 hPa | 0 mm | - | - | - |
| 1788018165 | 24.44° C | 71% | 1003.6 hPa | 0 mm | - | - | - |
| 1788017865 | 25° C | 69% | 1003.6 hPa | 0 mm | - | - | - |
| 1788017565 | 25° C | 71% | 1003.7 hPa | 0 mm | - | - | - |
| 1788017265 | 25° C | 70% | 1003.6 hPa | 0 mm | - | - | - |
| 1788016999 | 25° C | 70% | 1003.6 hPa | 0 mm | - | - | - |
| 1788016965 | 25° C | 70% | 1003.6 hPa | 0 mm | - | - | - |
| 1788016665 | 24.44° C | 73% | 1003.6 hPa | 0 mm | - | - | - |
| 1788016365 | 24.44° C | 72% | 1003.5 hPa | 0 mm | - | - | - |
| 1788016065 | 24.44° C | 74% | 1003.5 hPa | 0 mm | - | - | - |
| 1788015765 | 23.89° C | 74% | 1003.6 hPa | 0 mm | - | - | - |
| 1788015465 | 23.89° C | 74% | 1003.6 hPa | 0 mm | - | - | - |
| 1788015165 | 23.33° C | 74% | 1003.7 hPa | 0 mm | - | - | - |
| 1788014866 | 23.33° C | 77% | 1003.8 hPa | 0 mm | - | - | - |
| 1788014565 | 23.33° C | 76% | 1003.9 hPa | 0 mm | - | - | - |
| 1788014265 | 22.78° C | 76% | 1003.9 hPa | 0 mm | - | - | - |
| 1788013965 | 22.78° C | 77% | 1003.9 hPa | 0 mm | - | - | - |
| 1788013665 | 22.22° C | 78% | 1003.8 hPa | 0 mm | - | - | - |
| 1788013365 | 22.22° C | 79% | 1003.9 hPa | 0 mm | - | - | - |
| 1788013065 | 21.67° C | 78% | 1003.8 hPa | 0 mm | - | - | - |
| 1788012766 | 21.67° C | 80% | 1003.9 hPa | 0 mm | - | - | - |
| 1788012465 | 21.11° C | 80% | 1003.9 hPa | 0 mm | - | - | - |
| 1788012165 | 21.11° C | 81% | 1003.8 hPa | 0 mm | - | - | - |
| 1788011865 | 21.11° C | 81% | 1003.9 hPa | 0 mm | - | - | - |
* Rain latest hour (hover to see other rain measurements)
** Current wind speed in m/s (hover to see current wind gust speed)